Madera, CA

12:41 PM PDT on September 24, 2017 (GMT -0700)
Madera Municipal

Weather History for KMAE - November, 2011

Change the Weather History Date:

Tuesday, November 1, 2011

  Actual Average Record
Temperature  
Mean Temperature 60 °F 58 °F  
Max Temperature 72 °F 72 °F 81 °F (2005)
Min Temperature 47 °F 45 °F 32 °F (2002)
Degree Days  
Heating Degree Days 5    
Month to date heating degree days 5  
Since 1 July heating degree days 66  
Cooling Degree Days 0    
Month to date cooling degree days 0  
Year to date cooling degree days 1402  
Growing Degree Days 10 (Base 50)    
Moisture  
Dew Point 39 °F    
Average Humidity 57    
Maximum Humidity 86    
Minimum Humidity 27    
Precipitation  
Precipitation 0.00 in 0.05 in 0.25 in (2014)
Month to date precipitation 0.00 0.05  
Year to date precipitation 8.14 9.22  
Since 1 July precipitation 0.76  
Snow  
Snow 0.00 in - - ()
Month to date snowfall 0.0  
Since 1 July snowfall 0.0  
Since 1 September snowfall 0.0  
Snow Depth 0.00 in    
Sea Level Pressure  
Sea Level Pressure 30.01 in    
Wind  
Wind Speed 12 mph (WNW)    
Max Wind Speed 15 mph    
Max Gust Speed -    
Visibility 10 miles    
Events      
T = Trace of Precipitation, MM = Missing Value Source: NWS Daily Summary

Daily Weather History Graph

Daily Weather History Graph

Search for Another Location

Airport or City:

Trip Planner

Search our weather history database for the weather conditions in past years. The results will help you decide how hot, cold, wet, or windy it might be!

Date:

Astronomy

Nov. 01, 2011 Rise Set
Actual Time 7:24 AM PDT 6:03 PM PDT
Civil Twilight 6:57 AM PDT 6:30 PM PDT
Nautical Twilight 6:26 AM PDT 7:00 PM PDT
Astronomical Twilight 5:56 AM PDT 7:30 PM PDT
Moon 1:12 PM PDT (11/1) 11:51 PM PDT (11/1)
Length of Visible Light 11h 32m
Length of Day
10h 38m
Waxing Crescent, 41% of the Moon is Illuminated
Nov 1
Waxing Crescent
Nov 2
First Quarter
Nov 10
Full
Nov 18
Last Quarter
Nov 24
New

Hourly Weather History & Observations

Time (PDT) Temp. Dew Point Humidity Pressure Visibility Wind Dir Wind Speed Gust Speed Precip Events Conditions
1:53 AM 50.0 °F 45.0 °F 83% 29.97 in 6.0 mi North - - N/A   Haze
2:53 AM 52.0 °F 46.9 °F 83% 29.97 in 7.0 mi North - - N/A   Clear
3:53 AM 48.9 °F 45.0 °F 86% 29.97 in 10.0 mi North - - N/A   Clear
4:53 AM 48.9 °F 44.1 °F 83% 29.98 in 8.0 mi North - - N/A   Clear
6:53 AM 50.0 °F 44.1 °F 80% 29.99 in 10.0 mi North - - N/A   Clear
7:53 AM 51.1 °F 43.0 °F 74% 30.01 in 10.0 mi NW 10.4 mph - N/A   Clear
8:53 AM 55.0 °F 41.0 °F 59% 30.03 in 10.0 mi NW 15.0 mph - N/A   Clear
9:53 AM 59.0 °F 37.9 °F 46% 30.05 in 10.0 mi NW 15.0 mph - N/A   Clear
11:53 AM 64.0 °F 37.9 °F 38% 30.04 in 10.0 mi NW 11.5 mph - N/A   Clear
12:53 PM 66.9 °F 37.9 °F 34% 30.02 in 10.0 mi NW 10.4 mph - N/A   Clear
2:53 PM 71.1 °F 37.0 °F 29% 30.00 in 10.0 mi NW 10.4 mph - N/A   Clear
3:53 PM 72.0 °F 36.0 °F 27% 29.99 in 10.0 mi NW 8.1 mph - N/A   Clear
5:53 PM 64.9 °F 37.9 °F 37% 29.99 in 10.0 mi West 4.6 mph - N/A   Clear
6:53 PM 60.1 °F 37.9 °F 44% 30.01 in 10.0 mi SSW 8.1 mph - N/A   Clear
7:53 PM 55.0 °F 37.9 °F 53% 30.02 in 10.0 mi SSW 5.8 mph - N/A   Mostly Cloudy
8:27 PM 53.6 °F 37.4 °F 54% 30.03 in 10.0 mi Calm Calm - N/A   Mostly Cloudy
8:53 PM 50.0 °F 36.0 °F 59% 30.04 in 10.0 mi SSW 4.6 mph - N/A   Clear
9:53 PM 52.0 °F 33.1 °F 49% 30.04 in 10.0 mi Calm Calm - N/A   Clear
10:53 PM 50.0 °F 34.0 °F 54% 30.06 in 10.0 mi Calm Calm - N/A   Clear
11:53 PM 48.9 °F 34.0 °F 56% 30.07 in 10.0 mi Calm Calm - N/A   Clear